{"data":{"norad_id":59683,"intl_designator":"2024-086B","name":"STARLINK-32080","alt_names":[],"object_type":"PAYLOAD","status":"ACTIVE","operator":null,"country":"US","launch_date":"2024-05-08","launch_site_code":"AFETR","launch_vehicle":null,"mission":null,"orbit_class":"UNKNOWN","rcs_meters":null,"size_class":null,"mass_kg":null,"dimensions":null,"purposes":["comms"],"wikipedia_slug":null,"has_3d_model":false,"image_url":null,"decayed_at":null,"tle_current":{"epoch":"2026-05-24T23:24:58.238784Z","epoch_age_seconds":77113,"freshness":"FRESH","line1":"1 59683U 24086B   26144.97567406  .00000134  00000+0  14412-4 0  9995","line2":"2 59683  43.0037 352.9751 0001249 254.0247 106.0467 15.27576550115747","mean_motion":15.2757655,"eccentricity":0.0001249,"inclination_deg":43.0037,"raan_deg":352.9751,"arg_perigee_deg":254.0247,"mean_anomaly_deg":106.0467,"bstar":1.4412e-5,"rev_number":11574,"period_min":94.266961613151,"perigee_km":482.20246316654,"apogee_km":483.91639003391,"semimajor_km":6861.1964266002,"source":"CELESTRAK","updated_at":"2026-05-25T13:38:19.023007Z"}}}